Location: Elmsmere
(40.9284°N, 73.8207°W)
Time: 21:55:33
(UTC+00:00)

STARLINK-2740 - Pass Details

Date: 26 June 2021
Orbit: 349 x 351 km, 53.0° (Epoch: 31 July)

Event Time Altitude Azimuth Distance (km) Brightness Sun altitude
Exits shadow 05:54:28 - 88° (E) 1,906 6.6 -24.4°
Enters shadow 06:50:26 -68° 232° (SW) 12,196 10.4 -20.6°
Maximum altitude 07:26:46 89° 142° (SE) 379 2.7 -17.1°
